INSAT-4B

Last updated on Jan. 23, 2021, 7:13 a.m. UTC

1 30793U 07007A   21022.86591098 -.00000177  00000-0  00000-0 0  9995
2 30793   0.9686  95.3090 0007163 188.4127 235.9196  1.00270602 22442
UTC
Height (km)
Latitude
Longitude
Inclination
Orbital Period
UTC large
Height (km)
Speed (km/s)
/
Latitude / Longitude
Inclination (degrees)
Orbital Period (minutes)
Azimuth
Elevation
Range (km)
Doppler Factor
iOS Compass Heading
iOS Angle

Next 30 passes for location: Hong Kong

Rise time Rise Azimuth (degrees) Set time Set Azimuth (degrees) Duration Max altitude (degrees)

No matching passes for this satellites